Location: �terpigny
(49.8910°N, 2.9249°E)
Time: 03:54:55
(UTC+00:00)

Gurwin Techsat 1B - Visible Passes

Search period start: 28 June 2022 00:00
Search period end: 08 July 2022 00:00
Orbit: 811 x 814 km, 98.8° (Epoch: 27 June)

Date Brightness Start Highest point End Pass type
(mag) Time Alt. Az. Time Alt. Az. Time Alt. Az.
28 Jun 10.3 01:30:38 10° NE 01:35:06 26° E 01:39:32 10° SSE visible
29 Jun 10.8 01:08:22 10° NE 01:11:53 18° E 01:15:22 10° SE visible
29 Jun 8.7 02:47:05 10° NNE 02:52:26 79° WNW 02:57:44 10° SSW visible
30 Jun 11.1 00:47:07 10° ENE 00:48:35 11° E 00:50:02 10° E visible
30 Jun 8.9 02:24:09 10° NNE 02:29:29 70° ESE 02:34:46 10° S visible
01 Jul 9.5 02:01:19 10° NNE 02:06:27 46° E 02:11:32 10° S visible
02 Jul 10.1 01:38:40 10° NNE 01:43:20 30° E 01:48:00 10° SSE visible
03 Jul 10.6 01:16:15 10° NE 01:20:09 20° E 01:24:01 10° SE visible
03 Jul 8.7 02:55:17 10° N 03:00:35 69° WNW 03:05:52 10° SSW visible
04 Jul 11.0 00:54:26 10° ENE 00:56:53 13° E 00:59:18 10° ESE visible
04 Jul 8.7 02:32:17 10° NNE 02:37:39 80° ESE 02:42:59 10° SSW visible
05 Jul 9.2 02:09:26 10° NNE 02:14:39 53° E 02:19:51 10° S visible
06 Jul 9.9 01:46:42 10° NNE 01:51:35 35° E 01:56:24 10° SSE visible
07 Jul 10.5 01:24:12 10° NE 01:28:25 23° E 01:32:36 10° SE visible
07 Jul 8.9 03:03:29 10° N 03:08:44 60° WNW 03:13:57 10° SSW visible
